TimeCDT,TemperatureF,Dew PointF,Humidity,Sea Level PressureIn,VisibilityMPH,Wind Direction,Wind SpeedMPH,Gust SpeedMPH,PrecipitationIn,Events,Conditions,WindDirDegrees,DateUTC
12:53 AM,71.1,70.0,96,29.75,10.0,Calm,Calm,-,N/A,,Clear,0,2013-06-30 05:53:00
1:53 AM,70.0,69.1,97,29.74,10.0,Calm,Calm,-,N/A,,Clear,0,2013-06-30 06:53:00
2:53 AM,69.1,68.0,96,29.73,10.0,Calm,Calm,-,N/A,,Clear,0,2013-06-30 07:53:00
3:53 AM,69.1,68.0,96,29.72,10.0,Calm,Calm,-,N/A,,Clear,0,2013-06-30 08:53:00
4:53 AM,68.0,66.0,93,29.73,10.0,Calm,Calm,-,N/A,,Clear,0,2013-06-30 09:53:00
5:53 AM,68.0,66.0,93,29.75,10.0,Calm,Calm,-,N/A,,Clear,0,2013-06-30 10:53:00
6:53 AM,69.1,66.9,93,29.76,10.0,Calm,Calm,-,N/A,,Clear,0,2013-06-30 11:53:00
7:53 AM,73.0,68.0,84,29.76,10.0,NW,3.5,-,N/A,,Clear,310,2013-06-30 12:53:00
8:53 AM,77.0,69.1,76,29.77,10.0,NW,3.5,-,N/A,,Clear,310,2013-06-30 13:53:00
9:53 AM,79.0,69.1,72,29.77,10.0,Variable,3.5,-,N/A,,Clear,0,2013-06-30 14:53:00
10:53 AM,84.0,69.1,61,29.77,10.0,Calm,Calm,-,N/A,,Clear,0,2013-06-30 15:53:00
11:53 AM,87.1,63.0,44,29.76,10.0,Calm,Calm,-,N/A,,Clear,0,2013-06-30 16:53:00
12:53 PM,89.1,61.0,39,29.75,10.0,North,3.5,-,N/A,,Mostly Cloudy,350,2013-06-30 17:53:00
1:53 PM,89.1,57.9,35,29.73,10.0,Calm,Calm,-,N/A,,Mostly Cloudy,0,2013-06-30 18:53:00
2:53 PM,88.0,60.1,39,29.73,10.0,ENE,4.6,-,N/A,,Mostly Cloudy,60,2013-06-30 19:53:00
3:53 PM,87.1,62.1,43,29.73,10.0,Calm,Calm,-,N/A,,Mostly Cloudy,0,2013-06-30 20:53:00
4:53 PM,81.0,69.1,67,29.74,10.0,North,3.5,-,0.00,,Mostly Cloudy,360,2013-06-30 21:53:00
5:53 PM,81.0,70.0,69,29.75,10.0,Calm,Calm,-,N/A,,Overcast,0,2013-06-30 22:53:00
6:53 PM,81.0,69.1,67,29.75,10.0,North,3.5,-,N/A,,Overcast,360,2013-06-30 23:53:00
7:53 PM,78.1,70.0,76,29.76,10.0,Calm,Calm,-,N/A,,Overcast,0,2013-07-01 00:53:00
8:53 PM,75.9,69.1,79,29.78,10.0,NW,3.5,-,N/A,,Mostly Cloudy,320,2013-07-01 01:53:00
9:53 PM,77.0,66.0,69,29.79,10.0,NNW,6.9,-,N/A,,Clear,330,2013-07-01 02:53:00
10:53 PM,73.9,66.0,76,29.81,10.0,NW,3.5,-,N/A,,Clear,320,2013-07-01 03:53:00
11:53 PM,73.9,66.0,76,29.81,10.0,Calm,Calm,-,N/A,,Clear,0,2013-07-01 04:53:00